Greenland, New Hampshire, United States (03840)
Lat: 43.04N, Lon: 70.83W
Wx Zone: NHZ014
Local Info
Past Weather Observations for Friday, January 23, 2015

NOTE: This archive is for the closest National Weather Service station to Greenland. Information may differ from the station used for current weather conditions.

Click here for Long-term Archive

Time Weather Temperature Dewpoint Humidity Pressure Winds Precip Visibility
23:58
Mostly Cloudy
27°F / -3°C 16°F / -9°C 64% 29.89 in
(1012 mb)
SW 5.8 mph
(SW 9 kph)
- 10SM
22:58
Partly Cloudy
27°F / -3°C 16°F / -9°C 64% 29.92 in
(1013 mb)
SW 8.1 mph
(SW 13 kph)
- 10SM
21:58
Partly Cloudy
27°F / -3°C 16°F / -9°C 64% 29.95 in
(1014 mb)
SW 6.9 mph
(SW 11 kph)
- 10SM
20:58
Partly Cloudy
27°F / -3°C 16°F / -9°C 64% 29.98 in
(1015 mb)
SW 5.8 mph
(SW 9 kph)
- 10SM
19:58
Partly Cloudy
27°F / -3°C 16°F / -9°C 64% 30.01 in
(1016 mb)
SSE 4.6 mph
(SSE 7 kph)
- 10SM
18:58
Clear
28°F / -2°C 16°F / -9°C 59% 30.01 in
(1016 mb)
SSE 4.6 mph
(SSE 7 kph)
- 10SM
17:58
Partly Cloudy
28°F / -2°C 14°F / -10°C 55% 30.01 in
(1016 mb)
S 6.9 mph
(S 11 kph)
- 10SM
16:58
Partly Cloudy
30°F / -1°C 14°F / -10°C 51% 30.01 in
(1016 mb)
SSE 6.9 mph
(SSE 11 kph)
- 10SM
15:58
Partly Cloudy
34°F / 1°C 14°F / -10°C 44% 30.04 in
(1017 mb)
SSW 9.2 mph
(SSW 15 kph)
- 10SM
14:58
Partly Cloudy
36°F / 2°C 14°F / -10°C 41% 30.06 in
(1018 mb)
SSW 9.2 mph
(SSW 15 kph)
- 10SM
13:55
Partly Cloudy
34°F / 1°C 12°F / -11°C 41% 30.09 in
(1019 mb)
SSW 10.4 mph
(SSW 17 kph)
- 10SM
12:55
Partly Cloudy
34°F / 1°C 12°F / -11°C 41% 30.12 in
(1020 mb)
W 10.4 mph
(W 17 kph)
- 10SM
11:55
Partly Cloudy
32°F / 0°C 10°F / -12°C 40% 30.15 in
(1021 mb)
SSW 11.5 mph
(SSW 19 kph)
- 10SM
10:55
Partly Cloudy
30°F / -1°C 10°F / -12°C 43% 30.18 in
(1022 mb)
SSW 11.5 mph
(SSW 19 kph)
- 10SM
09:55
Partly Cloudy
27°F / -3°C 9°F / -13°C 46% 30.21 in
(1023 mb)
SSW 8.1 mph
(SSW 13 kph)
- 10SM
08:55
Partly Cloudy
23°F / -5°C 10°F / -12°C 58% 30.24 in
(1024 mb)
SSW 5.8 mph
(SSW 9 kph)
- 10SM
07:55
Partly Cloudy
21°F / -6°C 10°F / -12°C 63% 30.24 in
(1024 mb)
SSW 6.9 mph
(SSW 11 kph)
- 10SM
06:55
Partly Cloudy
19°F / -7°C 10°F / -12°C 68% 30.24 in
(1024 mb)
SSW 5.8 mph
(SSW 9 kph)
- 10SM
05:55
Partly Cloudy
21°F / -6°C 9°F / -13°C 58% 30.24 in
(1024 mb)
W 8.1 mph
(W 13 kph)
- 10SM
04:55
Partly Cloudy
21°F / -6°C 10°F / -12°C 63% 30.21 in
(1023 mb)
W 6.9 mph
(W 11 kph)
- 10SM
03:59
Clear
23°F / -5°C 10°F / -12°C 58% 30.21 in
(1023 mb)
SSW 10.4 mph
(SSW 17 kph)
- 10SM
02:55
Clear
23°F / -5°C 10°F / -12°C 58% 30.21 in
(1023 mb)
SSW 10.4 mph
(SSW 17 kph)
- 10SM
01:55
Clear
25°F / -4°C 10°F / -12°C 54% 30.21 in
(1023 mb)
W 9.2 mph
(W 15 kph)
- 10SM
00:58
Clear
27°F / -3°C 12°F / -11°C 54% 30.18 in
(1022 mb)
W 9.2 mph
(W 15 kph)
- 10SM
Time Weather Temperature Dewpoint Humidity Pressure Winds Precip Visibility


Weather for websites

WeatherForYou.com, LLC is not responsible for any damages or problems caused by this service. Current weather conditions are obtained from the closest station including government and personal stations which may have varying degrees of accuracy. Weather forecasts are derived from the NOAA NDFD. Like all things, this site belongs to Jesus Christ... He just trusts me to maintain it. If you have any questions or comments email webmaster@weatherforyou.com

Copyright © 2015, WeatherForYou.com LLC. All rights reserved.